Auburn, CA

6:34 AM PST on November 17, 2019 (GMT -0800)
Auburn Municipal

Weather History for KAUN - September, 2019

Change the Weather History Date:

Sunday, September 8, 2019

  Actual Average Record
Temperature  
Mean Temperature 66 °F -  
Max Temperature 78 °F 88 °F 104 °F (1957)
Min Temperature 53 °F 59 °F 49 °F (1956)
Growing Degree Days 16 (Base 50)    
Moisture  
Dew Point 50 °F    
Average Humidity 59    
Maximum Humidity 88    
Minimum Humidity 32    
Precipitation  
Precipitation 0.00 in - - ()
Sea Level Pressure  
Sea Level Pressure 29.98 in    
Wind  
Wind Speed 2 mph ()    
Max Wind Speed 9 mph    
Max Gust Speed 13 mph    
Visibility 10.0 miles    
Events      
Averages and records for this station are not official NWS values.
T = Trace of Precipitation, MM = Missing Value Source: Averaged Metar Reports

Daily Weather History Graph

Daily Weather History Graph

Search for Another Location

Airport or City:

Astronomy

Sep. 08, 2019 Rise Set
Actual Time 6:39 AM PDT 7:23 PM PDT
Civil Twilight 6:12 AM PDT 7:50 PM PDT
Nautical Twilight 5:40 AM PDT 8:22 PM PDT
Astronomical Twilight 5:07 AM PDT 8:55 PM PDT
Moon 4:34 PM PDT (9/8) 1:25 AM PDT (9/8)
Length of Visible Light 13h 38m
Length of Day
12h 44m
Waxing Gibbous, 76% of the Moon is Illuminated
Sep 8
Waxing Gibbous
Sep 13
Full
Sep 21
Last Quarter
Sep 28
New
Oct 5
First Quarter

Hourly Weather History & Observations

Time (PDT) Temp. Dew Point Humidity Pressure Visibility Wind Dir Wind Speed Gust Speed Precip Events Conditions
12:15 AM 57.2 °F 53.6 °F 88% 29.98 in 10.0 mi Calm Calm - N/A   Clear
12:35 AM 57.2 °F 53.6 °F 88% 29.97 in 10.0 mi Calm Calm - N/A   Clear
12:55 AM 57.2 °F 53.6 °F 88% 29.97 in 10.0 mi ESE 8.1 mph - N/A   Clear
1:15 AM 59.0 °F 53.6 °F 82% 29.98 in 10.0 mi ESE 9.2 mph - N/A   Clear
1:35 AM 59.0 °F 53.6 °F 82% 29.97 in 10.0 mi ESE 8.1 mph - N/A   Clear
1:55 AM 57.2 °F 53.6 °F 88% 29.96 in 10.0 mi ESE 6.9 mph - N/A   Clear
2:15 AM 59.0 °F 53.6 °F 82% 29.96 in 10.0 mi Calm Calm - N/A   Clear
2:35 AM 57.2 °F 51.8 °F 82% 29.97 in 10.0 mi Calm Calm - N/A   Clear
2:55 AM 57.2 °F 51.8 °F 82% 29.98 in 10.0 mi Calm Calm - N/A   Clear
3:15 AM 55.4 °F 51.8 °F 88% 29.98 in 10.0 mi Calm Calm - N/A   Clear
3:35 AM 55.4 °F 51.8 °F 88% 29.97 in 10.0 mi East 5.8 mph - N/A   Clear
3:55 AM 55.4 °F 51.8 °F 88% 29.98 in 10.0 mi Calm Calm - N/A   Clear
4:15 AM 55.4 °F 51.8 °F 88% 29.97 in 10.0 mi Calm Calm - N/A   Clear
4:35 AM 55.4 °F 51.8 °F 88% 29.97 in 10.0 mi East 4.6 mph - N/A   Clear
4:55 AM 55.4 °F 50.0 °F 82% 29.97 in 10.0 mi East 6.9 mph - N/A   Clear
5:15 AM 55.4 °F 50.0 °F 82% 29.97 in 10.0 mi East 6.9 mph - N/A   Clear
5:35 AM 55.4 °F 50.0 °F 82% 29.97 in 10.0 mi Calm Calm - N/A   Clear
5:55 AM 57.2 °F 50.0 °F 77% 29.97 in 10.0 mi Calm Calm - N/A   Clear
6:15 AM 57.2 °F 48.2 °F 72% 29.98 in 10.0 mi Calm Calm - N/A   Clear
6:35 AM 57.2 °F 48.2 °F 72% 29.98 in 10.0 mi Calm Calm - N/A   Clear
6:55 AM 53.6 °F 48.2 °F 82% 29.99 in 10.0 mi Calm Calm - N/A   Clear
7:15 AM 53.6 °F 48.2 °F 82% 30.00 in 10.0 mi Calm Calm - N/A   Clear
7:35 AM 57.2 °F 50.0 °F 77% 30.00 in 10.0 mi Calm Calm - N/A   Clear
7:55 AM 59.0 °F 50.0 °F 72% 30.01 in 10.0 mi Calm Calm - N/A   Clear
8:15 AM 60.8 °F 50.0 °F 68% 30.00 in 10.0 mi Calm Calm - N/A   Clear
8:35 AM 60.8 °F 50.0 °F 68% 30.01 in 10.0 mi Calm Calm - N/A   Clear
8:55 AM 62.6 °F 50.0 °F 63% 30.01 in 10.0 mi Calm Calm - N/A   Clear
9:15 AM 64.4 °F 50.0 °F 59% 30.01 in 10.0 mi Calm Calm - N/A   Clear
9:35 AM 66.2 °F 50.0 °F 56% 30.01 in 10.0 mi Calm Calm - N/A   Clear
9:55 AM 66.2 °F 50.0 °F 56% 30.02 in 10.0 mi Calm Calm - N/A   Clear
10:15 AM 68.0 °F 50.0 °F 52% 30.02 in 10.0 mi Calm Calm - N/A   Clear
10:35 AM 69.8 °F 51.8 °F 53% 30.02 in 10.0 mi Calm Calm - N/A   Clear
10:55 AM 69.8 °F 50.0 °F 49% 30.02 in 10.0 mi Calm Calm - N/A   Clear
11:15 AM 69.8 °F 51.8 °F 53% 30.01 in 10.0 mi Calm Calm - N/A   Clear
11:35 AM 69.8 °F 51.8 °F 53% 30.01 in 10.0 mi Calm Calm - N/A   Clear
11:55 AM 71.6 °F 51.8 °F 50% 30.01 in 10.0 mi Calm Calm 11.5 mph N/A   Clear
12:15 PM 73.4 °F 51.8 °F 47% 30.01 in 10.0 mi Calm Calm - N/A   Clear
12:35 PM 73.4 °F 53.6 °F 50% 30.01 in 10.0 mi Calm Calm - N/A   Clear
12:55 PM 75.2 °F 51.8 °F 44% 30.01 in 10.0 mi WSW 8.1 mph - N/A   Clear
1:15 PM 73.4 °F 51.8 °F 47% 30.01 in 10.0 mi Calm Calm - N/A   Clear
1:35 PM 75.2 °F 51.8 °F 44% 30.01 in 10.0 mi Calm Calm 12.7 mph N/A   Clear
1:55 PM 75.2 °F 51.8 °F 44% 30.00 in 10.0 mi Calm Calm - N/A   Clear
2:15 PM 77.0 °F 51.8 °F 41% 30.00 in 10.0 mi Calm Calm 11.5 mph N/A   Clear
2:35 PM 77.0 °F 50.0 °F 39% 30.00 in 10.0 mi Calm Calm - N/A   Clear
2:55 PM 77.0 °F 51.8 °F 41% 29.99 in 10.0 mi Variable 5.8 mph - N/A   Clear
3:15 PM 78.8 °F 51.8 °F 39% 29.99 in 10.0 mi SW 5.8 mph - N/A   Clear
3:35 PM 78.8 °F 50.0 °F 36% 29.98 in 10.0 mi WSW 6.9 mph - N/A   Clear
3:55 PM 78.8 °F 48.2 °F 34% 29.97 in 10.0 mi Variable 5.8 mph - N/A   Clear
4:15 PM 78.8 °F 50.0 °F 36% 29.97 in 10.0 mi Variable 4.6 mph - N/A   Clear
4:35 PM 78.8 °F 46.4 °F 32% 29.97 in 10.0 mi Calm Calm 11.5 mph N/A   Clear
4:55 PM 78.8 °F 46.4 °F 32% 29.96 in 10.0 mi West 6.9 mph - N/A   Clear
5:15 PM 77.0 °F 46.4 °F 34% 29.96 in 10.0 mi SW 5.8 mph - N/A   Clear
5:35 PM 77.0 °F 46.4 °F 34% 29.96 in 10.0 mi West 6.9 mph - N/A   Clear
5:55 PM 77.0 °F 46.4 °F 34% 29.96 in 10.0 mi West 5.8 mph - N/A   Clear
6:15 PM 77.0 °F 44.6 °F 32% 29.95 in 10.0 mi Calm Calm - N/A   Clear
6:35 PM 75.2 °F 46.4 °F 36% 29.95 in 10.0 mi Calm Calm - N/A   Clear
6:55 PM 73.4 °F 44.6 °F 36% 29.95 in 10.0 mi Calm Calm - N/A   Clear
7:15 PM 71.6 °F 44.6 °F 38% 29.96 in 10.0 mi Calm Calm - N/A   Clear
7:35 PM 68.0 °F 44.6 °F 43% 29.96 in 10.0 mi Calm Calm - N/A   Clear
7:55 PM 64.4 °F 44.6 °F 49% 29.96 in 10.0 mi Calm Calm - N/A   Clear
8:15 PM 62.6 °F 44.6 °F 52% 29.97 in 10.0 mi Calm Calm - N/A   Clear
8:35 PM 62.6 °F 44.6 °F 52% 29.97 in 10.0 mi Calm Calm - N/A   Clear
8:55 PM 59.0 °F 44.6 °F 59% 29.97 in 10.0 mi Calm Calm - N/A   Clear
9:15 PM 60.8 °F 44.6 °F 55% 29.98 in 10.0 mi Calm Calm - N/A   Clear
9:35 PM 62.6 °F 48.2 °F 59% 29.98 in 10.0 mi Calm Calm - N/A   Clear
9:55 PM 66.2 °F 48.2 °F 52% 29.97 in 10.0 mi Calm Calm - N/A   Clear
10:15 PM 64.4 °F 48.2 °F 56% 29.97 in 10.0 mi Calm Calm - N/A   Clear
10:35 PM 64.4 °F 48.2 °F 56% 29.97 in 10.0 mi Calm Calm - N/A   Clear
10:55 PM 64.4 °F 48.2 °F 56% 29.97 in 10.0 mi Calm Calm - N/A   Clear
11:15 PM 62.6 °F 48.2 °F 59% 29.97 in 10.0 mi East 4.6 mph - N/A   Clear
11:35 PM 62.6 °F 48.2 °F 59% 29.97 in 10.0 mi Calm Calm - N/A   Clear
11:55 PM 62.6 °F 48.2 °F 59% 29.97 in 10.0 mi Calm Calm - N/A   Clear